Regional Weather Roundup
Issued by NWS

Home | Current Version | Previous Version | Graphics & Text | Print | Product List | Glossary On
Versions: 1 2 3 4 5 6 7 8 9 10 11 12 13 14 15 16 17 18 19 20 21 22 23 24 25 26 27 28 29 30 31 32 33 34 35 36 37 38 39 40 41 42 43 44 45 46 47 48 49 50
110
ASUS43 KDMX 250608
RWRIA

WEATHER ROUNDUP FOR IOWA
NATIONAL WEATHER SERVICE DES MOINES IA
100 AM CDT WED MAY 25 2016

NOTE: "FAIR" INDICATES FEW OR NO CLOUDS BELOW 12,000 FEET WITH NO
SIGNIFICANT WEATHER AND/OR OBSTRUCTIONS TO VISIBILITY.

* - THESE STATIONS ARE NOT NWS STATIONS...THUS NOT UNDER NWS
QUALITY CONTROL.  THEY ALSO DO NOT REPORT WEATHER SUCH
AS PRECIPITATION OR FOG.

IAZ001>003-012>014-020>022-031>034-043>046-250700-
   NORTHWEST IOWA

CITY           SKY/WX    TMP DP  RH WIND       PRES   REMARKS
CARROLL *      CLEAR     66  63  88 S7        29.90R
CHEROKEE *     CLOUDY    66  64  93 S5        29.89R
DENISON *      PTCLDY    68  63  83 S13       29.87F
LE MARS *      CLEAR     70  64  83 SE12      29.87R
ORANGE CITY *  CLEAR     68  64  88 SE6       29.87S
SHELDON *      CLEAR     64  63  94 SE8       29.86S
SIOUX CITY     CLOUDY    68  61  78 SE9       29.84R
6HR MIN TEMP:  66; 6HR MAX TEMP:  81;

SPENCER        CLOUDY    65  60  84 SE3       29.90R
6HR MIN TEMP:  64; 6HR MAX TEMP:  82;

STORM LAKE *   CLEAR     66  63  88 SE10      29.91R
$$

IAZ055>058-069>071-079>083-090>094-250700-
   SOUTHWEST IOWA

CITY           SKY/WX    TMP DP  RH WIND       PRES   REMARKS
ATLANTIC *     MOCLDY    68  63  83 S5G12     29.89F
AUDUBON *      PTCLDY    64  61  88 SE3       29.92F
CLARINDA *       N/A     70  66  88 MISG      29.90F
COUNCIL BLFS * MOCLDY    70  64  83 SE13      29.86F
CRESTON *      PTCLDY    66  64  94 S7        29.92F
HARLAN  *        N/A    N/A N/A N/A MISG        N/A
LAMONI         CLOUDY    66  63  90 S5        29.92S
6HR MIN TEMP:  66; 6HR MAX TEMP:  78;

RED OAK *      PTCLDY    70  66  88 S7        29.88F
SHENANDOAH *   MOCLDY    72  68  88 SE12G17   29.86F
$$

IAZ047>049-059>061-072>074-084-250700-
   CENTRAL IOWA

CITY           SKY/WX    TMP DP  RH WIND       PRES   REMARKS
AMES           CLOUDY    64  61  90 SE5       29.93R
6HR MIN TEMP:  64; 6HR MAX TEMP:  80;

ANKENY *       CLEAR     68  64  88 S6        29.94R
BOONE *        CLEAR     66  63  88 S7        29.92R
CHARITON *     CLEAR     66  64  94 S6        29.95R
DES MOINES     CLOUDY    69  62  78 S8        29.94R
6HR MIN TEMP:  69; 6HR MAX TEMP:  82;

GRINNELL*      CLOUDY    68  63  83 S8        29.95R
KNOXVILLE *    CLEAR     66  63  88 S6        29.93R
MARSHALLTOWN   PTCLDY    66  62  87 SE6       29.92R
6HR MIN TEMP:  64; 6HR MAX TEMP:  82;

NEWTON *       CLOUDY    66  64  94 S6        29.94R
PELLA *        CLOUDY    66  63  88 S5        29.95R
PERRY *          N/A     66  63  88 S10       29.92R
$$

IAZ004>006-015-016-023>025-035-036-250700-
   NORTH CENTRAL IOWA

CITY           SKY/WX    TMP DP  RH WIND       PRES   REMARKS
ALGONA *       CLEAR     68  63  83 SE6       29.91R
CLARION *      CLEAR     66  64  94 E7        29.91R
ESTHERVILLE    CLOUDY    61  58  90 SE8       29.90R
6HR MIN TEMP:  61; 6HR MAX TEMP:  80;

FORT DODGE *   CLOUDY    66  61  82 SE6       29.92R
MASON CITY     CLEAR     62  60  93 CALM      29.93R
6HR MIN TEMP:  61; 6HR MAX TEMP:  79;

FOREST CITY *  CLEAR     59  59 100 CALM      29.92R
WEBSTER CITY * CLEAR     66  63  88 S9        29.90R
IOWA FALLS *     N/A     68  61  77 S7        29.93R
$$

IAZ007>011-017>019-026>030-037>042-050>054-066-250700-
   NORTHEAST IOWA

CITY           SKY/WX    TMP DP  RH WIND       PRES   REMARKS
CEDAR RAPIDS   CLEAR     66  64  93 S6        29.93S
6HR MIN TEMP:  66; 6HR MAX TEMP:  82;

CHARLES CITY * CLEAR     66  61  82 E6        29.94R
CLINTON *      CLEAR     69  62  78 SW6       29.97R
DECORAH *      PTCLDY    68  61  77 NE3       29.93F
DUBUQUE        MOCLDY    67  60  78 S7        29.96R
6HR MIN TEMP:  67; 6HR MAX TEMP:  81;

MONTICELLO *   CLEAR     70  63  78 S5        29.94S
OELWEIN *      CLEAR     68  61  77 S7        29.94R
WATERLOO       CLEAR     69  61  75 S8        29.91S
6HR MIN TEMP:  63; 6HR MAX TEMP:  83;

$$

IAZ064-065-067-068-078-250700-
   EAST CENTRAL IOWA

CITY           SKY/WX    TMP DP  RH WIND       PRES   REMARKS
DAVENPORT      CLEAR     71  62  73 SW6       29.96R
6HR MIN TEMP:  69; 6HR MAX TEMP:  84;

IOWA CITY      CLEAR     66  62  87 S6        29.95S
6HR MIN TEMP:  66; 6HR MAX TEMP:  83;

MT. PLEASANT * CLEAR     68  65  89 S6        29.96R
MUSCATINE *    CLEAR     68  63  83 CALM      29.96R
QUAD CITIES    CLEAR     70  61  73 CALM      29.95R
6HR MIN TEMP:  68; 6HR MAX TEMP:  84;

$$

IAZ062-063-075>077-085>089-095>099-250700-
   SOUTHEAST IOWA

CITY           SKY/WX    TMP DP  RH WIND       PRES   REMARKS
BURLINGTON     PTCLDY    66  63  90 S7        29.96R
6HR MIN TEMP:  65; 6HR MAX TEMP:  80;

FAIRFIELD *      N/A    N/A N/A N/A MISG        N/A
FORT MADISON * CLEAR     66  63  88 S8        29.97S
KEOKUK *       CLEAR     66  64  94 S6        29.96S
OSKALOOSA *      N/A     64  61  90 SE6       29.96R
OTTUMWA        CLOUDY    67  64  90 S9        29.94R
6HR MIN TEMP:  63; 6HR MAX TEMP:  80;

WASHINGTON *   CLEAR     64  63  94 S7        29.96S
$$

ABBREVIATIONS USED IN REMARKS
   TC - TEMPERATURES IN CELSIUS
  WCI - WIND CHILL INDEX
   HX - HEAT INDEX
  VSB - VISIBILITY
$$





USA.gov is the U.S. government's official web portal to all federal, state and local government web resources and services.